Location: Bailen
(14.1842°N, 120.7958°E)
Time: 17:20:52
(UTC+00:00)

Cosmos 1709 Rocket - Pass Details

Date: 12 January 2026
Orbit: 948 x 1000 km, 82.9° (Epoch: 17 February)

Event Time Altitude Azimuth Distance (km) Brightness Sun altitude
Rises 20:22:28 0° 184° (S) 3,625 7.1 -28.8°
Reaches altitude 10° 20:24:58 10° 184° (S) 2,675 6.4 -28.2°
Maximum altitude 20:31:05 88° 275° (W) 953 3.8 -26.8°
Drops below altitude 10° 20:37:10 10° 3° (N) 2,665 6.1 -25.4°
Sets 20:39:39 0° 4° (N) 3,611 6.8 -24.8°
